Date String (YYYY-MM-DD hh:mm:ss) UTC,Instrument flags,Ambient pressure (hPa),Sample flow (lpm),Bypass flow (lpm),Sample temperature (°C),Ambient temperature (°C),ASC tube jacket temperature (°C),LED temperature (°C),Box temperature (°C),Sample RH (%),Span deviation,Mass concentration (μg/m³),Mass concentration (μg/m³),Mass concentration (μg/m³)
DateTimeUTC,F1_M11,P_M11,Q1_M11,Q2_M11,T1_M11,T2_M11,T3_M11,T4_M11,T5_M11,U1_M11,ZSPAN_M11,X2_M11,X0_M11,X1_M11
2021-12-15 00:00:00,,0816.9,5.02,0.00,29.5,28.6,00.0,38.4,31.2,06.7,0000.6,0009.27,0036.03,0005.83
2021-12-15 00:01:00,,0817.0,5.00,0.00,29.5,28.6,00.0,38.4,31.2,06.7,0000.5,0009.33,0036.61,0005.83
2021-12-15 00:02:00,,0817.2,5.01,0.00,29.5,28.6,00.0,38.4,31.2,06.7,0001.9,0009.41,0036.67,0005.81
2021-12-15 00:03:00,,0817.3,4.99,0.00,29.5,28.6,00.0,38.4,31.2,06.7,0004.0,0009.47,0036.89,0005.80
2021-12-15 00:04:00,,0817.0,5.00,0.00,29.5,28.6,00.0,38.4,31.2,06.7,0005.3,0009.55,0035.75,0005.79
2021-12-15 00:05:00,,0816.9,5.01,0.00,29.5,28.6,00.0,38.4,31.2,06.7,0006.1,0009.51,0036.69,0005.77
2021-12-15 00:06:00,,0817.0,5.00,0.00,29.5,28.6,00.0,38.4,31.2,06.7,0005.3,0009.66,0039.27,0005.75
2021-12-15 00:07:00,,0816.9,4.99,0.00,29.5,28.6,00.0,38.4,31.2,06.7,0001.6,0009.91,0044.05,0005.75
2021-12-15 00:08:00,,0817.0,5.00,0.00,29.5,28.6,00.0,38.4,31.2,06.7,0001.8,0009.99,0045.83,0005.74
2021-12-15 00:09:00,,0817.0,4.98,0.00,29.5,28.6,00.0,38.4,31.1,06.7,0002.0,0009.98,0047.69,0005.74
2021-12-15 00:10:00,,0817.0,5.03,0.00,29.4,28.5,00.0,38.4,31.1,06.7,0002.7,0009.90,0049.78,0005.72
2021-12-15 00:11:00,,0817.0,5.01,0.00,29.4,28.4,00.0,38.4,31.1,06.7,0004.9,0009.98,0050.80,0005.70
2021-12-15 00:12:00,,0817.1,4.99,0.00,29.4,28.4,00.0,38.4,31.1,06.7,0007.0,0009.93,0050.68,0005.69
2021-12-15 00:13:00,,0817.0,5.01,0.00,29.4,28.4,00.0,38.4,31.0,06.7,0011.9,0009.78,0051.61,0005.66
2021-12-15 00:14:00,,0817.0,5.00,0.00,29.4,28.5,00.0,38.4,31.0,06.7,0012.7,0009.75,0050.87,0005.65
2021-12-15 00:15:00,,0817.0,5.00,0.00,29.3,28.4,00.0,38.4,31.0,06.8,0012.8,0009.71,0052.72,0005.63
2021-12-15 00:16:00,,0817.0,5.02,0.00,29.3,28.4,00.0,38.4,30.9,06.8,0012.4,0009.74,0051.65,0005.64
2021-12-15 00:17:00,,0817.0,4.99,0.00,29.3,28.4,00.0,38.3,31.0,06.8,0011.9,0009.62,0050.59,0005.65
2021-12-15 00:18:00,,0817.0,5.00,0.00,29.3,28.4,00.0,38.3,31.0,06.8,0011.9,0009.49,0048.95,0005.64
2021-12-15 00:19:00,,0817.0,5.00,0.00,29.3,28.4,00.0,38.3,31.0,06.8,0011.4,0009.53,0046.90,0005.66
2021-12-15 00:20:00,,0817.0,4.99,0.00,29.3,28.4,00.0,38.3,31.0,06.8,0010.7,0009.56,0046.47,0005.66
2021-12-15 00:21:00,,0817.0,5.01,0.00,29.3,28.5,00.0,38.3,31.0,06.8,0010.1,0009.61,0043.82,0005.68
2021-12-15 00:22:00,,0817.0,5.01,0.00,29.3,28.5,00.0,38.3,31.0,06.8,0011.2,0009.62,0043.51,0005.69
2021-12-15 00:23:00,,0817.0,5.00,0.00,29.3,28.5,00.0,38.3,31.0,06.8,0010.2,0009.67,0044.58,0005.71
2021-12-15 00:24:00,,0816.9,5.00,0.00,29.3,28.5,00.0,38.3,31.0,06.8,0010.9,0009.78,0045.77,0005.74
2021-12-15 00:25:00,,0817.0,5.00,0.00,29.3,28.5,00.0,38.3,31.0,06.8,0010.5,0009.86,0045.78,0005.75
2021-12-15 00:26:00,,0817.0,5.01,0.00,29.3,28.5,00.0,38.3,31.0,06.8,0009.6,0009.96,0045.00,0005.77
2021-12-15 00:27:00,,0817.0,4.99,0.00,29.3,28.5,00.0,38.3,31.0,06.8,0009.1,0010.01,0046.42,0005.76
2021-12-15 00:28:00,,0817.1,5.00,0.00,29.3,28.5,00.0,38.3,31.0,06.8,0009.9,0010.07,0049.25,0005.75
2021-12-15 00:29:00,,0817.0,5.00,0.00,29.3,28.5,00.0,38.3,31.0,06.8,0009.5,0010.12,0050.84,0005.76
2021-12-15 00:30:00,,0817.0,5.01,0.00,29.3,28.4,00.0,38.3,30.9,06.8,0009.6,0010.10,0052.32,0005.75
2021-12-15 00:31:00,,0817.1,5.01,0.00,29.2,28.4,00.0,38.3,30.9,06.8,0009.1,0010.17,0053.71,0005.76
2021-12-15 00:32:00,,0817.1,4.98,0.00,29.2,28.4,00.0,38.3,30.8,06.8,0009.2,0010.16,0053.47,0005.74
2021-12-15 00:33:00,,0817.1,5.01,0.00,29.2,28.4,00.0,38.2,30.8,06.8,0009.3,0010.19,0052.97,0005.75
2021-12-15 00:34:00,,0817.1,5.00,0.00,29.2,28.4,00.0,38.2,30.8,06.8,0009.8,0010.18,0052.21,0005.76
2021-12-15 00:35:00,,0817.1,5.00,0.00,29.2,28.4,00.0,38.2,30.8,06.8,0007.6,0010.20,0050.86,0005.78
2021-12-15 00:36:00,,0817.1,5.00,0.00,29.2,28.4,00.0,38.2,30.8,06.8,0006.5,0010.17,0052.26,0005.79
2021-12-15 00:37:00,,0817.1,5.01,0.00,29.1,28.3,00.0,38.2,30.8,06.8,0006.1,0010.12,0053.39,0005.79
2021-12-15 00:38:00,,0817.2,4.99,0.00,29.1,28.3,00.0,38.2,30.8,06.8,0005.9,0010.06,0053.50,0005.80
2021-12-15 00:39:00,,0817.1,5.00,0.00,29.1,28.3,00.0,38.2,30.8,06.9,0006.2,0009.98,0050.06,0005.82
2021-12-15 00:40:00,,0817.2,5.01,0.00,29.1,28.3,00.0,38.2,30.8,06.9,0006.0,0009.91,0046.36,0005.85
2021-12-15 00:41:00,,0817.2,4.99,0.00,29.1,28.3,00.0,38.2,30.7,07.0,0006.0,0009.78,0045.36,0005.85
2021-12-15 00:42:00,,0817.1,5.02,0.00,29.1,28.2,00.0,38.2,30.7,07.0,0005.9,0009.65,0043.89,0005.84
2021-12-15 00:43:00,,0817.1,5.00,0.00,29.0,28.2,00.0,38.1,30.7,07.0,0005.6,0009.60,0044.19,0005.84
2021-12-15 00:44:00,,0817.0,5.00,0.00,29.0,28.2,00.0,38.1,30.7,07.0,0005.0,0009.54,0044.48,0005.84
2021-12-15 00:45:00,,0817.0,5.02,0.00,29.0,28.2,00.0,38.1,30.6,07.0,0005.0,0009.55,0044.98,0005.82
2021-12-15 00:46:00,,0817.0,4.98,0.00,29.0,28.2,00.0,38.1,30.6,07.0,0004.9,0009.43,0044.49,0005.81
2021-12-15 00:47:00,,0816.9,4.99,0.00,29.0,28.2,00.0,38.1,30.6,07.0,0004.6,0009.39,0044.11,0005.80
2021-12-15 00:48:00,,0817.0,5.01,0.00,29.0,28.2,00.0,38.1,30.7,07.0,0004.1,0009.37,0042.81,0005.80
2021-12-15 00:49:00,,0817.0,4.98,0.00,29.0,28.2,00.0,38.1,30.7,07.0,0004.0,0009.40,0042.26,0005.81
2021-12-15 00:50:00,,0816.9,5.02,0.00,29.0,28.2,00.0,38.1,30.7,07.0,0001.4,0009.37,0042.64,0005.79
2021-12-15 00:51:00,,0816.9,4.99,0.00,29.0,28.2,00.0,38.1,30.7,07.0,0001.2,0009.41,0042.05,0005.77
2021-12-15 00:52:00,,0817.0,5.00,0.00,29.0,28.2,00.0,38.1,30.7,07.0,0001.0,0009.51,0041.96,0005.75
2021-12-15 00:53:00,,0817.0,5.01,0.00,29.0,28.2,00.0,38.1,30.8,07.0,0001.5,0009.62,0042.77,0005.76
2021-12-15 00:54:00,,0817.0,4.99,0.00,29.1,28.2,00.0,38.1,30.7,07.0,0002.6,0009.69,0042.12,0005.76
2021-12-15 00:55:00,,0817.0,5.00,0.00,29.0,28.2,00.0,38.1,30.7,07.0,0003.1,0009.69,0040.80,0005.77
2021-12-15 00:56:00,,0817.0,5.01,0.00,29.0,28.2,00.0,38.0,30.7,07.0,0001.7,0009.71,0041.59,0005.76
2021-12-15 00:57:00,,0817.0,4.99,0.00,29.0,28.2,00.0,38.0,30.7,07.0,-000.1,0009.82,0042.01,0005.75
2021-12-15 00:58:00,,0817.0,5.00,0.00,29.0,28.1,00.0,38.0,30.6,07.0,0000.9,0009.95,0040.93,0005.75
2021-12-15 00:59:00,,0816.9,5.01,0.00,28.9,28.1,00.0,38.0,30.5,07.0,0006.8,0009.99,0040.10,0005.74
